Skip Page Navigation
NASA JPL Caltech
NASA Logo - Jet Propulsion Laboratory + View the NASA Portal
+ Center for Near-Earth Object Studies
JPL Home Earth Solar System Stars & Galaxies Technology
JPL Solar System Dynamics
BODIES ORBITS EPHEMERIDES TOOLS PHYSICAL DATA DISCOVERY FAQ SITE MAP
JPL Small-Body Database Browser
Search: [ help ]  
(2018 LD1)
Classification: Apollo [NEO]          SPK-ID: 3825101
Ephemeris | Orbit Diagram | Orbital Elements | Mission Design | Physical Parameters | Close-Approach Data ]

[ hide orbit diagram ]

For accurate long-term ephemerides, please instead use our Horizons system.This orbit viewer was implemented using two-body methods, and hence should not be used for determining accurate long-term trajectories (over several years or decades) or planetary encounter circumstances.


[ revert to old Java-based viewer ]

Orbital Elements at Epoch 2459000.5 (2020-May-31.0) TDB
Reference: JPL 9 (heliocentric ecliptic J2000)
 Element Value Uncertainty (1-sigma)   Units 
e .5088936814605999 0.00032562  
a 1.845896028270469 0.0011324 au
q .9065312028504104 4.4939e-05 au
i .2264045536485166 0.00030154 deg
node 31.56764640205325 0.056321 deg
peri 279.005336431851 0.056523 deg
M 267.1424348589234 0.24373 deg
tp 2459236.778426928542
(2021-Jan-22.27842693)
0.83759 TDB
period 916.0291201373306
2.51
0.84291
0.002308
d
yr
n .3930006067340185 0.00036163 deg/d
Q 2.785260853690528 0.0017086 au
  Orbit Determination Parameters
   # obs. used (total)      49  
   data-arc span      8 days  
   first obs. used      2018-06-05  
   last obs. used      2018-06-13  
   planetary ephem.      DE431  
   SB-pert. ephem.      SB431-N16  
   condition code      7  
   norm. resid. RMS      .59637  
   source      ORB  
   producer      Otto Matic  
   solution date      2019-Jul-18 07:28:23  

Additional Information
 Earth MOID = .00235093 au 
 Jupiter MOID = 2.51716 au 
 T_jup = 3.844 
[ show covariance matrix ]

Ephemeris | Orbit Diagram | Orbital Elements | Mission Design | Physical Parameters | Close-Approach Data ]

Physical Parameter Table
Parameter Symbol Value Units Sigma Reference Notes
absolute magnitude H 26.2   n/a E2018L73  

[ show close-approach data ]
Ephemeris | Orbit Diagram | Orbital Elements | Mission Design | Physical Parameters | Close-Approach Data ]
ABOUT SSD CREDITS/AWARDS PRIVACY/COPYRIGHT GLOSSARY LINKS
FirstGov 2020-Jul-09 22:12 UT
(server date/time)  
NASA Home Page
Site Manager:   Ryan S. Park
Webmaster  Alan B. Chamberlin